Theta_e
337 337 337 336 335 335 335 333 333 334 334 333 334 333 330 330 331 330 331 330 331 332 331 331 333 333 335 335 337 336 334 332 325 327 329 333 334 333 333 335 333 332 331
335 332 330 329 328 327 326 326 326 325 325 324 325 326 324 324 325 324 324 324 324 324 325 328 326 323 325 323 323 329 329 330 327 324 328 326 330 332 329 329 329 333 335
329 327 326 325 324 323 323 323 323 322 322 321 321 319 319 319 319 319 319 319 319 319 320 319 320 321 322 323 324 322 322 324 320 320 320 324 325 327 327 327 325 326 329
324 323 321 321 321 321 321 321 320 320 319 318 318 317 316 317 316 314 315 317 317 317 317 317 317 316 317 317 316 317 317 317 319 318 318 318 320 324 322 319 319 322 322
319 318 319 320 320 319 318 317 316 316 314 313 313 312 313 312 308 307 308 310 312 313 314 314 315 311 307 308 308 311 313 311 311 311 311 311 312 313 315 315 314 316 319
317 316 316 316 315 315 315 315 315 314 314 313 312 311 311 310 299 299 301 308 310 311 311 312 313 311 311 306 305 303 304 306 308 308 309 309 312 313 313 312 312 311 310
314 314 314 314 313 313 313 313 313 312 313 312 311 310 309 310 297 296 298 306 310 312 312 312 311 311 310 309 307 305 304 302 302 307 306 307 307 308 307 308 307 307 308
312 312 312 311 311 311 311 311 311 310 309 308 307 307 307 307 297 295 297 307 311 310 308 307 306 306 299 302 304 305 305 306 306 305 306 307 307 308 306 305 306 307 307
309 309 308 308 308 307 307 307 307 306 305 305 305 305 306 306 296 296 299 307 307 305 306 306 305 305 295 295 301 302 303 305 304 301 300 298 297 297 299 302 300 299 299
307 306 306 306 305 304 304 304 304 304 303 304 304 306 300 302 295 295 298 303 302 303 306 307 301 300 295 294 300 301 302 304 304 305 306 304 301 303 298 301 301 298 299
304 304 304 304 303 303 303 304 303 303 303 302 301 302 301 300 300 294 293 300 300 301 303 303 304 295 293 293 292 301 301 300 302 304 305 305 305 306 306 306 305 302 300
303 302 302 302 302 302 303 303 301 300 300 299 299 299 299 299 297 294 293 292 294 298 298 302 303 293 292 292 294 294 293 294 298 299 299 299 300 301 304 306 309 309 309
301 301 301 302 303 303 301 299 299 298 297 297 296 298 300 300 301 295 294 293 295 297 299 298 294 293 293 296 296 295 295 298 298 297 297 299 300 302 302 301 302 304 307
300 301 302 303 300 299 299 297 296 296 296 295 296 298 299 299 298 296 296 297 296 298 298 301 299 296 295 297 299 301 301 301 301 300 299 300 302 302 300 301 299 300 300
300 300 299 300 298 297 296 296 295 292 292 294 295 295 293 293 292 290 290 293 295 295 295 300 296 296 296 297 299 298 298 300 298 298 298 298 298 299 300 303 301 299 298
297 298 295 296 296 296 295 294 290 290 289 288 288 289 293 289 289 289 289 289 289 290 295 293 293 294 295 296 297 296 298 299 299 300 298 296 296 296 297 298 301 302 300
294 295 295 294 297 295 296 297 296 291 289 289 288 288 288 288 288 288 289 289 289 291 292 293 293 293 294 295 294 294 294 296 297 297 297 296 294 294 294 295 299 301 303
294 290 295 296 295 296 295 295 294 293 292 293 289 289 288 288 288 288 289 292 292 291 291 290 290 290 292 292 292 291 292 293 293 294 295 295 293 292 292 293 296 300 306
294 294 295 295 295 294 294 293 293 292 293 293 292 291 291 289 289 289 290 292 289 289 290 290 290 290 290 290 290 290 290 290 290 291 292 292 292 291 290 292 295 294 296
294 290 292 294 294 294 293 292 292 292 291 290 289 288 290 291 290 290 290 290 289 289 290 290 290 290 290 289 289 289 288 289 289 289 289 290 290 291 290 292 294 298 304
293 292 288 294 294 292 291 291 292 291 290 289 289 286 284 289 288 288 288 288 288 288 288 288 289 290 289 289 288 288 288 289 288 288 287 288 288 288 290 292 294 299 303
292 292 293 295 294 293 293 294 294 293 292 292 292 290 284 292 291 291 291 289 289 289 289 288 289 289 289 288 288 287 287 287 285 285 286 286 287 289 291 292 295 298 303
291 291 293 294 293 289 293 293 293 292 292 291 292 291 291 292 291 291 291 292 292 292 292 290 290 291 291 291 291 289 288 286 284 286 285 285 287 289 291 293 294 295 300
291 293 295 293 293 293 293 292 290 288 291 291 291 291 291 291 291 291 292 292 293 293 294 293 293 293 293 293 293 291 289 286 286 287 286 288 290 291 293 292 293 295 301
290 292 292 292 292 292 291 291 291 291 291 290 290 290 291 291 291 291 292 292 292 293 293 293 293 293 293 292 291 289 285 284 285 284 289 292 294 294 293 292 294 297 300
291 292 292 292 291 291 290 290 290 290 290 290 290 290 290 290 291 291 291 291 291 291 292 292 292 292 292 291 288 285 284 283 285 283 287 295 294 296 292 293 295 296 298
Wind_Speed
15 15 16 15 14 13 12 12 11 10 9 8 8 7 6 6 5 5 3 4 4 4 5 7 9 9 7 6 5 6 8 9 8 11 8 8 9 10 9 7 9 13 12
17 17 17 16 15 14 13 12 11 10 9 8 7 6 6 6 5 5 5 5 5 5 4 5 4 4 6 5 6 9 8 8 8 12 10 5 6 6 5 8 7 11 14
17 17 16 15 14 13 12 10 9 8 8 8 7 6 6 6 5 5 6 6 6 6 7 7 7 8 8 7 7 8 6 6 6 7 11 8 8 6 10 7 5 10 11
16 16 15 14 13 11 10 9 9 8 7 7 7 7 7 7 5 8 9 8 8 8 8 8 8 9 9 9 9 9 9 9 10 10 11 11 11 10 10 9 9 11 14
16 15 14 12 11 10 9 9 8 8 8 8 7 7 7 8 9 9 10 10 10 10 9 9 9 7 8 8 8 10 11 10 11 12 12 12 12 11 11 10 12 12 12
15 13 11 11 10 8 7 7 6 7 7 7 7 8 8 7 10 10 11 11 11 10 9 9 9 8 3 4 7 4 7 10 12 11 12 13 14 12 10 11 12 13 14
14 12 10 8 8 6 6 7 7 7 8 8 9 9 10 10 8 8 11 11 10 8 8 8 9 7 9 9 6 8 11 14 14 11 14 14 14 11 11 13 14 14 15
13 11 8 8 7 7 7 7 8 9 9 10 10 11 10 6 8 7 11 11 7 6 7 7 7 8 10 9 12 12 12 12 11 10 12 13 12 9 11 11 14 15 12
11 8 7 7 7 8 9 9 9 10 10 9 9 9 8 8 10 9 13 9 8 8 7 7 6 9 10 9 12 12 12 13 10 16 17 18 18 19 17 14 13 12 11
8 7 7 8 8 9 9 9 8 8 7 7 7 8 7 7 10 11 12 7 7 7 8 6 5 7 6 7 11 12 13 12 12 14 14 13 15 16 23 17 12 12 11
6 6 6 7 8 7 7 6 6 6 7 7 6 5 6 8 7 9 11 9 8 9 8 7 5 11 12 13 10 11 11 14 16 14 12 11 11 11 9 12 14 13 12
4 5 7 7 5 4 4 5 5 5 4 5 6 5 5 5 3 6 8 7 10 8 7 7 8 17 17 16 12 9 13 12 9 9 9 9 10 10 10 10 11 11 14
6 5 5 4 3 4 5 5 5 5 4 5 5 4 4 5 5 7 6 9 8 8 7 10 14 15 12 9 10 14 12 6 8 8 8 10 10 11 13 12 12 14 15
5 4 3 3 4 5 4 4 4 4 4 4 4 5 6 7 8 9 9 8 8 7 8 6 7 7 8 9 8 6 7 8 8 7 8 10 9 9 10 9 9 9 9
3 4 3 2 3 4 5 5 4 8 8 6 7 7 7 7 9 11 11 8 8 10 11 6 7 7 7 7 7 8 8 8 8 8 9 10 10 11 11 9 8 9 9
2 1 3 3 4 3 3 5 10 9 10 10 8 8 5 8 11 13 12 9 11 14 6 5 6 8 8 9 10 9 10 11 11 11 9 10 11 11 12 12 10 8 9
1 1 4 3 2 3 3 3 3 8 9 10 8 10 10 10 12 14 13 7 10 9 7 7 8 9 9 10 10 11 11 12 14 11 11 10 11 12 14 12 11 10 6
3 5 3 2 3 3 4 5 5 4 4 4 9 9 8 10 11 12 13 8 8 9 8 7 8 9 9 10 10 10 11 11 12 12 12 11 11 11 13 13 12 13 5
3 2 3 4 5 4 5 6 5 4 5 6 6 6 10 5 6 8 10 9 9 9 9 9 9 9 10 11 11 11 12 11 11 11 12 12 11 12 13 12 12 13 9
5 3 2 5 5 6 5 5 5 5 6 7 8 9 8 8 9 10 10 10 9 9 9 10 10 10 11 11 11 11 11 12 12 11 13 12 12 12 13 14 13 13 11
5 4 4 5 6 7 5 5 5 5 6 6 6 8 7 7 8 8 9 9 9 9 10 10 10 11 11 12 12 12 13 13 13 13 12 12 12 13 13 12 12 13 12
5 5 5 7 6 6 6 5 5 6 6 6 6 7 5 7 7 8 9 8 8 8 8 9 9 10 11 11 12 13 14 13 13 13 13 13 12 12 12 13 13 12 11
6 5 7 7 7 6 5 5 5 6 7 7 7 7 8 8 8 9 8 8 8 8 8 8 9 10 10 10 11 13 14 14 14 14 13 13 12 12 12 12 13 12 11
6 6 7 6 6 6 6 7 8 6 7 8 8 8 8 8 9 9 9 9 9 9 10 9 10 14 14 13 12 13 14 14 14 13 19 13 11 13 11 12 12 14 11
5 7 7 7 6 6 6 7 7 8 8 8 7 7 8 8 9 9 9 9 9 9 11 11 11 15 18 20 20 22 20 20 19 19 13 14 15 15 12 11 12 12 13
6 8 7 7 6 6 6 6 7 7 8 7 7 7 8 8 9 9 9 11 10 10 12 10 14 18 20 18 21 20 20 21 21 24 17 13 14 12 10 12 17 11 13
Wind_Direction
112 107 106 99 93 91 95 93 86 84 79 73 72 83 81 67 45 34 359 349 314 326 333 315 284 267 272 281 271 274 282 290 275 276 283 290 276 277 284 285 285 270 258
104 102 100 98 93 89 86 84 82 78 71 68 61 66 60 52 40 20 3 355 345 335 327 295 281 321 320 339 341 324 320 314 287 270 282 298 263 243 245 260 270 278 282
103 102 98 95 93 89 86 82 79 77 66 51 44 33 26 22 13 2 347 340 334 324 326 320 320 319 311 321 315 296 291 264 267 269 276 272 258 235 269 253 256 252 251
101 97 96 91 88 85 80 71 61 53 44 39 30 16 6 349 3 357 341 331 323 321 315 311 308 306 312 322 304 299 285 284 284 278 277 275 269 269 253 262 254 246 252
97 93 90 88 83 75 65 58 49 37 27 18 10 3 355 328 41 357 331 313 306 302 302 299 298 356 304 304 313 321 317 294 291 289 286 284 280 276 277 285 281 283 276
98 95 93 88 81 73 62 55 40 24 12 357 351 342 339 329 51 15 336 317 305 300 301 309 308 254 242 223 227 240 300 297 292 290 291 287 289 287 301 293 288 284 278
98 94 90 87 79 62 42 23 10 358 345 338 330 328 326 317 59 13 328 298 304 308 306 319 322 336 331 338 336 268 249 236 241 283 286 285 296 297 290 278 272 272 274
86 80 70 51 38 19 1 355 346 334 325 324 319 319 319 339 58 1 311 278 288 330 323 315 332 323 53 354 320 308 307 298 281 262 267 277 279 284 277 273 280 280 274
83 70 51 27 4 352 341 335 327 321 321 319 321 327 322 337 57 15 330 323 356 344 335 313 324 319 54 17 315 311 302 287 262 228 241 254 260 264 263 280 274 265 264
65 49 24 7 346 328 328 323 320 325 324 331 338 7 21 17 48 25 355 336 338 323 300 318 124 24 357 344 316 307 302 310 317 309 300 275 251 248 240 244 253 261 268
44 15 348 341 324 320 319 319 337 347 354 358 1 12 19 23 29 40 15 337 345 327 335 338 348 31 349 320 297 295 313 325 305 295 295 297 299 287 256 228 225 230 246
358 341 338 329 324 332 324 12 22 15 3 15 5 11 12 351 15 48 4 9 337 322 323 327 333 344 315 305 304 326 299 298 291 294 292 287 286 285 289 296 291 238 227
327 333 322 337 2 19 27 26 33 19 12 16 10 354 10 10 3 64 21 344 338 324 334 320 288 283 293 312 315 307 302 292 292 296 299 296 294 289 283 275 271 278 278
324 331 6 44 356 40 42 38 38 7 23 26 4 5 1 13 21 355 346 338 344 322 324 312 355 338 313 302 310 330 342 328 330 323 313 308 304 303 285 269 263 261 262
354 17 18 40 40 59 61 38 64 53 32 4 13 3 1 360 5 336 334 335 341 342 312 12 6 355 350 342 343 350 332 337 332 327 320 317 316 320 315 316 259 254 246
39 25 42 24 44 59 88 118 84 89 78 59 44 23 28 44 349 346 343 348 357 349 17 9 358 352 350 342 345 341 331 340 331 328 324 319 317 320 317 313 297 262 249
61 45 82 55 93 91 98 86 84 125 103 81 52 44 23 7 359 357 356 347 17 352 15 7 1 351 345 345 346 340 334 338 329 330 326 321 318 318 321 319 312 307 269
121 38 73 100 95 83 63 58 54 44 61 80 89 54 38 23 8 4 357 17 27 25 19 9 1 352 346 349 345 338 334 333 336 328 325 326 321 319 320 321 319 323 305
111 131 113 91 71 73 78 70 63 61 59 52 38 31 16 34 19 36 10 30 24 19 12 11 8 358 353 352 347 341 337 332 325 326 327 327 323 321 317 317 315 312 302
111 62 119 104 105 87 76 82 82 74 67 55 45 26 11 24 28 24 23 22 19 16 11 5 2 360 355 352 349 341 338 336 333 330 329 324 322 319 316 318 316 314 314
128 125 73 110 91 83 85 84 77 74 72 68 69 43 341 35 35 30 25 21 15 12 6 1 357 358 355 350 349 344 342 338 335 330 326 322 322 319 316 314 314 315 318
130 132 134 107 103 107 109 106 101 94 82 69 58 86 272 43 30 31 33 23 18 12 7 3 359 1 357 351 347 345 340 340 334 329 324 324 320 318 318 317 320 325 324
124 144 124 113 106 147 109 77 72 75 69 61 53 47 40 36 34 25 25 17 16 13 18 11 356 1 357 354 351 350 346 345 332 326 327 321 319 319 322 325 328 328 327
146 152 114 105 86 101 92 98 105 67 58 61 52 46 40 35 33 26 18 12 12 10 9 8 3 4 357 359 0 355 357 339 330 330 329 317 318 325 330 328 328 330 329
141 116 114 109 106 105 106 85 80 72 66 59 53 45 40 33 33 26 23 15 13 12 8 7 6 359 6 5 4 354 349 338 333 327 327 327 339 338 342 329 329 335 338
107 99 99 97 93 85 84 82 74 68 65 59 54 47 38 32 31 24 21 17 10 11 8 5 4 360 10 6 360 344 350 342 334 328 318 351 352 348 352 341 347 345 341